Location: Gleizolles
(44.4833°N, 6.7667°E)
Time: 11:39:11
(UTC+00:00)

Envisat - Pass Details

Date: 09 December 2021
Orbit: 764 x 766 km, 98.2° (Epoch: 20 January)

Event Time Altitude Azimuth Distance (km) Brightness Sun altitude
Rises 17:02:41 0° 213° (SSW) 3,221 7.2 -12.0°
Reaches altitude 10° 17:05:59 10° 236° (WSW) 2,301 6.8 -12.5°
Maximum altitude 17:08:51 15° 271° (W) 1,977 6.2 -13.0°
Drops below altitude 10° 17:11:43 10° 306° (NW) 2,310 6.0 -13.5°
Sets 17:15:05 0° 329° (NNW) 3,243 6.4 -14.0°
